Tracking 35275 objects as of 9-Sep-2026
HD Live streaming from Space Station
objects crossing your sky now

CZ-6A DEB

Track CZ-6A DEB now!
10-day predictions


NORAD ID: 56281
Int'l Code: 2022-151ACZ
Launch date: November 11, 2022
Source: People's Republic of China (PRC)
Launch site: Taiyaun Space Center, China (TSC)

Note: This is SATELLITE DEBRIS
Your satellite tracking list
Your tracking list is empty




NASA's NSSDC Master Catalog

Two Line Element Set (TLE):
1 56281U 22151ACZ 26251.45804143  .00001330  00000-0  70051-3 0  9991
2 56281  98.8337 248.4027 0058115  95.2794 265.5014 14.14823310178775
Source of the keplerian elements: AFSPC